Location: Cussy
(47.0410°N, 4.6412°E)
Time: 18:32:35
(UTC+00:00)

SL-08 R/B - Visible Passes

Search period start: 21 April 2021 00:00
Search period end: 01 May 2021 00:00
Orbit: 949 x 1019 km, 82.9° (Epoch: 21 April)

Date Brightness Start Highest point End Pass type
(mag) Time Alt. Az. Time Alt. Az. Time Alt. Az.
21 Apr 4.5 01:20:46 10° N 01:26:53 72° E 01:28:41 47° SSE visible
21 Apr 5.8 03:07:36 10° NW 03:11:46 19° W 03:13:31 17° WSW visible
22 Apr 6.3 00:04:02 10° NNE 00:08:47 23° ENE 00:11:29 17° E visible
22 Apr 4.4 01:48:51 10° NNW 01:54:54 65° W 01:56:19 50° SSW visible
23 Apr 5.4 00:31:30 10° N 00:37:14 40° ENE 00:39:08 32° ESE visible
23 Apr 5.1 02:17:15 10° NNW 02:22:43 36° W 02:23:59 32° WSW visible
23 Apr 6.8 23:16:00 10° NNE 23:18:40 13° ENE 23:21:19 10° E visible
24 Apr 4.5 00:59:18 10° N 01:05:27 71° E 01:06:50 54° SE visible
24 Apr 5.8 02:46:08 10° NW 02:50:21 20° W 02:51:40 19° W visible
24 Apr 6.2 23:42:36 10° NNE 23:47:21 23° ENE 23:49:41 18° E visible
25 Apr 4.4 01:27:24 10° NNW 01:33:28 66° W 01:34:32 56° SW visible
25 Apr 6.4 03:17:34 10° WNW 03:17:47 10° WNW 03:18:00 10° WNW visible
26 Apr 5.4 00:10:04 10° N 00:15:47 39° ENE 00:17:25 33° ESE visible
26 Apr 5.1 01:55:47 10° NNW 02:01:18 36° W 02:02:15 34° WSW visible
26 Apr 6.8 22:54:36 10° NNE 22:57:13 13° ENE 22:59:49 10° E visible
27 Apr 4.5 00:37:52 10° N 00:44:00 70° E 00:45:09 57° SE visible
27 Apr 5.8 02:24:39 10° NW 02:28:56 20° W 02:29:59 19° W visible
27 Apr 6.2 23:21:10 10° NNE 23:25:54 23° ENE 23:28:03 19° E visible
28 Apr 4.4 01:05:57 10° NNW 01:12:02 67° W 01:12:54 59° SW visible
28 Apr 6.4 02:55:32 10° WNW 02:56:22 10° WNW 02:57:11 10° W visible
28 Apr 5.4 23:48:37 10° N 23:54:21 39° ENE 23:55:49 34° ESE visible
29 Apr 5.1 01:34:19 10° NNW 01:39:52 37° W 01:40:40 35° WSW visible
29 Apr 6.7 22:33:13 10° NNE 22:35:46 13° ENE 22:38:19 10° E visible
30 Apr 4.5 00:16:26 10° N 00:22:34 69° E 00:23:36 59° SE visible
30 Apr 5.8 02:03:10 10° NW 02:07:31 21° W 02:08:27 20° W visible
30 Apr 6.1 22:59:45 10° NNE 23:04:27 22° ENE 23:06:33 19° E visible
